HST
1 20580U 90037B   24365.60328680  .00014464  00000-0  60514-3 0  9995
2 20580  28.4686 105.1058 0002610  45.3840 314.6966 15.22073435706947
ISS (ZARYA)
1 25544U 98067A   24366.44037236  .00026433  00000-0  46080-3 0  9999
2 25544  51.6401  58.0461 0005884  28.2226  50.1244 15.50522660489144
CXO
1 25867U 99040B   25002.83766059  .00000687  00000-0  00000+0 0  9993
2 25867  45.7235 138.6980 8657244 305.7522   0.4087  0.37800605 26478